| time (UTC) | temp F | wind direction | speed MPH | gust MPH | rain 1hr in | rain 24hr in | rain mn in | humidity % | barometer mb |
| 20260510121202 | 68 | 133 | 1.0 | 2.0 | 0.00 | 0.00 | 0.00 | 92 | 101.0 |
| 20260510120702 | 68 | 174 | 2.0 | 3.0 | 0.00 | 0.00 | 0.00 | 92 | 101.0 |
| 20260510120203 | 68 | 184 | 3.0 | 5.0 | 0.00 | 0.00 | 0.00 | 92 | 101.0 |
| 20260510115702 | 68 | 182 | 2.0 | 3.0 | 0.00 | 0.00 | 0.00 | 92 | 101.0 |
| 20260510114702 | 68 | 354 | 1.0 | 3.0 | 0.00 | 0.00 | 0.00 | 91 | 101.0 |
| 20260510114203 | 68 | 295 | 1.0 | 3.0 | 0.00 | 0.00 | 0.00 | 91 | 101.0 |
| 20260510113703 | 68 | 204 | 2.0 | 2.0 | 0.00 | 0.00 | 0.00 | 91 | 101.0 |
| 20260510113202 | 68 | 245 | 2.0 | 2.0 | 0.00 | 0.00 | 0.00 | 90 | 101.0 |
| 20260510112202 | 69 | 137 | 1.0 | 4.0 | 0.00 | 0.00 | 0.00 | 89 | 101.0 |
| 20260510111702 | 69 | 220 | 3.0 | 3.0 | 0.00 | 0.00 | 0.00 | 89 | 101.0 |
| 20260510111202 | 69 | 199 | 2.0 | 3.0 | 0.00 | 0.00 | 0.00 | 89 | 101.0 |
| 20260510110703 | 69 | 253 | 1.0 | 4.0 | 0.00 | 0.00 | 0.00 | 88 | 101.0 |
| 20260510110201 | 69 | 193 | 3.0 | 5.0 | 0.00 | 0.00 | 0.00 | 88 | 101.0 |
| 20260510105702 | 69 | 243 | 1.0 | 2.0 | 0.00 | 0.00 | 0.00 | 88 | 101.0 |
| 20260510105202 | 69 | 202 | 2.0 | 5.0 | 0.00 | 0.00 | 0.00 | 88 | 101.0 |
| 20260510103702 | 69 | 223 | 2.0 | 4.0 | 0.00 | 0.00 | 0.00 | 89 | 101.0 |
| 20260510103201 | 69 | 167 | 2.0 | 4.0 | 0.00 | 0.00 | 0.00 | 88 | 101.0 |
| 20260510102702 | 69 | 213 | 2.0 | 4.0 | 0.00 | 0.00 | 0.00 | 88 | 101.0 |
| 20260510102202 | 69 | 183 | 2.0 | 3.0 | 0.00 | 0.00 | 0.00 | 88 | 101.0 |
| 20260510101203 | 70 | 224 | 4.0 | 7.0 | 0.00 | 0.00 | 0.00 | 87 | 101.0 |
| 20260510100702 | 70 | 194 | 4.0 | 4.0 | 0.00 | 0.00 | 0.00 | 87 | 101.0 |
| 20260510100202 | 70 | 233 | 2.0 | 4.0 | 0.00 | 0.00 | 0.00 | 87 | 101.0 |
| 20260510095702 | 70 | 204 | 7.0 | 8.0 | 0.00 | 0.00 | 0.00 | 87 | 101.0 |
| 20260510095202 | 70 | 188 | 3.0 | 7.0 | 0.00 | 0.00 | 0.00 | 87 | 101.0 |
| 20260510094702 | 70 | 193 | 4.0 | 5.0 | 0.00 | 0.00 | 0.00 | 87 | 101.0 |
| 20260510094202 | 70 | 229 | 2.0 | 5.0 | 0.00 | 0.00 | 0.00 | 87 | 101.0 |
| 20260510093202 | 70 | 211 | 1.0 | 4.0 | 0.00 | 0.00 | 0.00 | 87 | 101.0 |
| 20260510092702 | 70 | 209 | 1.0 | 5.0 | 0.00 | 0.00 | 0.00 | 86 | 101.0 |
| 20260510091702 | 70 | 213 | 5.0 | 5.0 | 0.00 | 0.00 | 0.00 | 86 | 101.0 |
| 20260510091202 | 70 | 181 | 2.0 | 4.0 | 0.00 | 0.00 | 0.00 | 85 | 101.0 |
| 20260510090702 | 70 | 198 | 2.0 | 3.0 | 0.00 | 0.00 | 0.00 | 85 | 101.0 |
| 20260510090202 | 70 | 180 | 2.0 | 6.0 | 0.00 | 0.00 | 0.00 | 85 | 101.0 |
| 20260510085702 | 70 | 171 | 4.0 | 5.0 | 0.00 | 0.00 | 0.00 | 84 | 101.0 |
| 20260510085202 | 70 | 223 | 5.0 | 7.0 | 0.00 | 0.00 | 0.00 | 84 | 101.0 |
| 20260510084703 | 70 | 183 | 2.0 | 5.0 | 0.00 | 0.00 | 0.00 | 83 | 101.0 |
| 20260510084202 | 70 | 180 | 2.0 | 4.0 | 0.00 | 0.00 | 0.00 | 83 | 101.0 |
| 20260510083703 | 70 | 180 | 2.0 | 3.0 | 0.00 | 0.00 | 0.00 | 83 | 101.0 |
| 20260510081702 | 71 | 163 | 4.0 | 5.0 | 0.00 | 0.00 | 0.00 | 82 | 101.0 |
| 20260510081202 | 71 | 208 | 1.0 | 3.0 | 0.00 | 0.00 | 0.00 | 82 | 101.0 |
| 20260510080703 | 71 | 186 | 2.0 | 4.0 | 0.00 | 0.00 | 0.00 | 81 | 101.0 |
| 20260510075702 | 71 | 169 | 1.0 | 5.0 | 0.00 | 0.00 | 0.00 | 80 | 101.0 |
| 20260510075202 | 71 | 189 | 2.0 | 4.0 | 0.00 | 0.00 | 0.00 | 80 | 101.0 |
| 20260510074702 | 71 | 202 | 1.0 | 3.0 | 0.00 | 0.00 | 0.00 | 80 | 101.0 |
| 20260510074203 | 71 | 214 | 2.0 | 3.0 | 0.00 | 0.00 | 0.00 | 80 | 101.0 |
| 20260510073702 | 71 | 214 | 4.0 | 4.0 | 0.00 | 0.00 | 0.00 | 80 | 101.0 |
| 20260510073202 | 72 | 236 | 2.0 | 2.0 | 0.00 | 0.00 | 0.00 | 79 | 101.0 |
| 20260510072202 | 72 | 219 | 3.0 | 5.0 | 0.00 | 0.00 | 0.00 | 78 | 101.0 |
| 20260510071702 | 72 | 191 | 2.0 | 9.0 | 0.00 | 0.00 | 0.00 | 78 | 101.0 |
| 20260510071202 | 72 | 191 | 2.0 | 7.0 | 0.00 | 0.00 | 0.00 | 77 | 101.0 |
| 20260510070703 | 72 | 179 | 4.0 | 5.0 | 0.00 | 0.00 | 0.00 | 77 | 101.0 |
| 20260510070202 | 72 | 187 | 1.0 | 4.0 | 0.00 | 0.00 | 0.00 | 76 | 101.0 |
| 20260510065201 | 72 | 186 | 2.0 | 6.0 | 0.00 | 0.00 | 0.00 | 75 | 101.0 |
| 20260510064702 | 73 | 221 | 2.0 | 4.0 | 0.00 | 0.00 | 0.00 | 75 | 101.0 |
| 20260510064202 | 73 | 194 | 2.0 | 6.0 | 0.00 | 0.00 | 0.00 | 75 | 101.0 |
| 20260510063703 | 73 | 182 | 4.0 | 4.0 | 0.00 | 0.00 | 0.00 | 75 | 101.0 |
| 20260510063202 | 73 | 191 | 2.0 | 4.0 | 0.00 | 0.00 | 0.00 | 74 | 101.0 |
| 20260510062702 | 73 | 184 | 5.0 | 5.0 | 0.00 | 0.00 | 0.00 | 74 | 101.0 |
| 20260510062202 | 73 | 159 | 2.0 | 4.0 | 0.00 | 0.00 | 0.00 | 73 | 101.0 |
| 20260510055702 | 74 | 238 | 0.0 | 3.0 | 0.00 | 0.00 | 0.00 | 73 | 101.0 |
| 20260510055202 | 74 | 189 | 3.0 | 4.0 | 0.00 | 0.00 | 0.00 | 72 | 101.0 |
| 20260510054702 | 74 | 188 | 2.0 | 4.0 | 0.00 | 0.00 | 0.00 | 72 | 101.0 |
| 20260510054203 | 74 | 147 | 1.0 | 5.0 | 0.00 | 0.00 | 0.00 | 72 | 101.0 |
| 20260510053702 | 74 | 129 | 0.0 | 2.0 | 0.00 | 0.00 | 0.00 | 74 | 101.0 |
| 20260510053202 | 74 | 187 | 3.0 | 4.0 | 0.00 | 0.00 | 0.00 | 75 | 101.0 |
| 20260510052702 | 74 | 135 | 0.0 | 3.0 | 0.00 | 0.00 | 0.00 | 77 | 101.0 |
| 20260510052202 | 74 | 179 | 2.0 | 4.0 | 0.00 | 0.00 | 0.00 | 78 | 101.0 |
| 20260510051702 | 74 | 181 | 1.0 | 3.0 | 0.00 | 0.00 | 0.00 | 79 | 101.0 |
| 20260510050702 | 73 | 165 | 1.0 | 2.0 | 0.00 | 0.00 | 0.00 | 82 | 101.0 |
| 20260510050202 | 74 | 157 | 0.0 | 1.0 | 0.00 | 0.00 | 0.00 | 83 | 101.0 |
| 20260510045703 | 74 | 243 | 1.0 | 2.0 | 0.00 | 0.00 | 0.00 | 83 | 101.0 |
| 20260510044702 | 74 | 164 | 0.0 | 1.0 | 0.00 | 0.00 | 0.00 | 83 | 101.0 |
| 20260510044202 | 74 | 135 | 0.0 | 1.0 | 0.00 | 0.00 | 0.00 | 82 | 101.0 |
| 20260510043202 | 75 | 202 | 0.0 | 1.0 | 0.00 | 0.00 | 0.00 | 82 | 101.0 |
| 20260510042702 | 75 | 135 | 0.0 | 0.0 | 0.00 | 0.00 | 0.00 | 81 | 101.0 |
| 20260510042203 | 75 | 205 | 0.0 | 0.0 | 0.00 | 0.00 | 0.00 | 81 | 101.0 |
| 20260510041702 | 75 | 224 | 0.0 | 1.0 | 0.00 | 0.00 | 0.00 | 80 | 101.0 |
| 20260510041202 | 75 | 135 | 0.0 | 1.0 | 0.00 | 0.00 | 0.00 | 80 | 101.0 |
| 20260510040702 | 75 | 197 | 1.0 | 1.0 | 0.00 | 0.00 | 0.00 | 80 | 101.0 |
| 20260510040202 | 76 | 202 | 0.0 | 0.0 | 0.00 | 0.00 | 0.00 | 80 | 101.0 |
| 20260510035703 | 76 | 177 | 0.0 | 2.0 | 0.00 | 0.00 | 0.00 | 80 | 101.0 |
| 20260510035202 | 76 | 211 | 0.0 | 1.0 | 0.00 | 0.00 | 0.00 | 79 | 101.0 |
| 20260510034702 | 76 | 174 | 0.0 | 0.0 | 0.00 | 0.00 | 0.00 | 79 | 101.0 |
| 20260510034202 | 76 | 199 | 0.0 | 0.0 | 0.00 | 0.00 | 0.00 | 78 | 101.0 |
| 20260510033702 | 77 | 180 | 0.0 | 1.0 | 0.00 | 0.00 | 0.00 | 78 | 101.0 |
| 20260510033203 | 77 | 212 | 0.0 | 1.0 | 0.00 | 0.00 | 0.00 | 77 | 101.0 |
| 20260510032702 | 77 | 116 | 0.0 | 2.0 | 0.00 | 0.00 | 0.00 | 77 | 101.0 |
| 20260510032202 | 77 | 149 | 0.0 | 1.0 | 0.00 | 0.00 | 0.00 | 76 | 101.0 |
| 20260510031702 | 77 | 169 | 1.0 | 2.0 | 0.00 | 0.00 | 0.00 | 76 | 101.0 |
| 20260510031202 | 77 | 221 | 0.0 | 2.0 | 0.00 | 0.00 | 0.00 | 76 | 101.0 |
| 20260510030702 | 78 | 195 | 0.0 | 2.0 | 0.00 | 0.00 | 0.00 | 75 | 101.0 |
| 20260510025202 | 78 | 95 | 0.0 | 3.0 | 0.00 | 0.00 | 0.00 | 74 | 100.9 |
| 20260510024703 | 78 | 224 | 0.0 | 1.0 | 0.00 | 0.00 | 0.00 | 72 | 100.9 |
| 20260510024202 | 79 | 216 | 1.0 | 4.0 | 0.00 | 0.00 | 0.00 | 71 | 100.9 |
| 20260510023202 | 79 | 206 | 1.0 | 3.0 | 0.00 | 0.00 | 0.00 | 69 | 100.9 |
| 20260510022702 | 79 | 157 | 1.0 | 3.0 | 0.00 | 0.00 | 0.00 | 68 | 100.9 |
| 20260510022202 | 79 | 180 | 2.0 | 2.0 | 0.00 | 0.00 | 0.00 | 68 | 100.9 |
| 20260510021702 | 79 | 224 | 0.0 | 1.0 | 0.00 | 0.00 | 0.00 | 67 | 100.9 |
| 20260510021202 | 79 | 233 | 0.0 | 1.0 | 0.00 | 0.00 | 0.00 | 66 | 100.9 |
| 20260510020702 | 80 | 229 | 0.0 | 1.0 | 0.00 | 0.00 | 0.00 | 65 | 100.9 |
| 20260510020203 | 80 | 239 | 0.0 | 1.0 | 0.00 | 0.00 | 0.00 | 65 | 100.8 |
| 20260510015702 | 80 | 170 | 1.0 | 1.0 | 0.00 | 0.00 | 0.00 | 64 | 100.8 |
| 20260510015202 | 80 | 198 | 0.0 | 2.0 | 0.00 | 0.00 | 0.00 | 64 | 100.8 |
| 20260510014703 | 80 | 229 | 1.0 | 2.0 | 0.00 | 0.00 | 0.00 | 63 | 100.8 |
| 20260510014202 | 81 | 15 | 0.0 | 2.0 | 0.00 | 0.00 | 0.00 | 62 | 100.8 |
| 20260510013702 | 81 | 205 | 0.0 | 2.0 | 0.00 | 0.00 | 0.00 | 62 | 100.8 |
| 20260510011702 | 82 | 315 | 0.0 | 2.0 | 0.00 | 0.00 | 0.00 | 59 | 100.8 |
| 20260510011202 | 82 | 183 | 0.0 | 1.0 | 0.00 | 0.00 | 0.00 | 58 | 100.8 |
| 20260510010702 | 83 | 104 | 0.0 | 2.0 | 0.00 | 0.00 | 0.00 | 57 | 100.8 |
| 20260510010202 | 83 | 235 | 0.0 | 3.0 | 0.00 | 0.00 | 0.00 | 56 | 100.8 |
| 20260510005702 | 83 | 199 | 0.0 | 2.0 | 0.00 | 0.00 | 0.00 | 55 | 100.8 |
| 20260510005202 | 84 | 137 | 0.0 | 3.0 | 0.00 | 0.00 | 0.00 | 55 | 100.8 |
| 20260510004702 | 84 | 197 | 3.0 | 3.0 | 0.00 | 0.00 | 0.00 | 55 | 100.8 |
| 20260510004202 | 84 | 76 | 0.0 | 2.0 | 0.00 | 0.00 | 0.00 | 55 | 100.8 |
| 20260510003702 | 84 | 50 | 0.0 | 2.0 | 0.00 | 0.00 | 0.00 | 54 | 100.8 |
| 20260510003202 | 85 | 74 | 0.0 | 3.0 | 0.00 | 0.00 | 0.00 | 54 | 100.7 |
| 20260510002702 | 85 | 198 | 1.0 | 7.0 | 0.00 | 0.00 | 0.00 | 54 | 100.8 |
| 20260510002202 | 85 | 76 | 0.0 | 2.0 | 0.00 | 0.00 | 0.00 | 54 | 100.8 |
| 20260510001703 | 86 | 154 | 0.0 | 3.0 | 0.00 | 0.00 | 0.00 | 53 | 100.8 |
| 20260510001203 | 85 | 104 | 0.0 | 2.0 | 0.00 | 0.00 | 0.00 | 54 | 100.8 |
| 20260510000702 | 86 | 135 | 0.0 | 1.0 | 0.00 | 0.00 | 0.00 | 53 | 100.8 |
| 20260510000204 | 86 | 195 | 1.0 | 3.0 | 0.00 | 0.00 | 0.00 | 53 | 100.7 |
| 20260509235702 | 86 | 224 | 0.0 | 1.0 | 0.00 | 0.00 | 0.00 | 54 | 100.7 |
| 20260509235202 | 86 | 177 | 3.0 | 5.0 | 0.00 | 0.00 | 0.00 | 53 | 100.7 |
| 20260509234702 | 86 | 186 | 1.0 | 4.0 | 0.00 | 0.00 | 0.00 | 53 | 100.7 |
| 20260509234202 | 86 | 119 | 1.0 | 1.0 | 0.00 | 0.00 | 0.00 | 53 | 100.7 |
| 20260509233702 | 86 | 141 | 1.0 | 1.0 | 0.00 | 0.00 | 0.00 | 52 | 100.7 |
| 20260509233202 | 86 | 209 | 0.0 | 3.0 | 0.00 | 0.00 | 0.00 | 53 | 100.7 |
| 20260509232702 | 86 | 203 | 0.0 | 5.0 | 0.00 | 0.00 | 0.00 | 52 | 100.8 |
| 20260509232202 | 86 | 237 | 0.0 | 4.0 | 0.00 | 0.00 | 0.00 | 52 | 100.8 |
| 20260509231202 | 85 | 272 | 0.0 | 1.0 | 0.00 | 0.00 | 0.00 | 52 | 100.8 |
| 20260509230702 | 86 | 113 | 1.0 | 4.0 | 0.00 | 0.00 | 0.00 | 51 | 100.8 |
| 20260509225202 | 87 | 194 | 5.0 | 7.0 | 0.00 | 0.00 | 0.00 | 49 | 100.7 |
| 20260509223701 | 87 | 183 | 3.0 | 4.0 | 0.00 | 0.00 | 0.00 | 49 | 100.7 |
| 20260509223202 | 87 | 175 | 2.0 | 6.0 | 0.00 | 0.00 | 0.00 | 48 | 100.7 |
| 20260509222702 | 87 | 156 | 0.0 | 7.0 | 0.00 | 0.00 | 0.00 | 48 | 100.8 |
| 20260509222202 | 87 | 101 | 0.0 | 5.0 | 0.00 | 0.00 | 0.00 | 48 | 100.8 |
| 20260509221702 | 87 | 221 | 3.0 | 7.0 | 0.00 | 0.00 | 0.00 | 48 | 100.8 |
| 20260509220702 | 87 | 189 | 3.0 | 6.0 | 0.00 | 0.00 | 0.00 | 47 | 100.8 |
| 20260509215703 | 87 | 142 | 1.0 | 3.0 | 0.00 | 0.00 | 0.00 | 46 | 100.7 |
| 20260509215202 | 87 | 211 | 3.0 | 3.0 | 0.00 | 0.00 | 0.00 | 48 | 100.7 |
| 20260509214702 | 88 | 191 | 2.0 | 5.0 | 0.00 | 0.00 | 0.00 | 48 | 100.7 |
| 20260509214202 | 89 | 203 | 3.0 | 6.0 | 0.00 | 0.00 | 0.00 | 46 | 100.7 |
| 20260509213702 | 88 | 340 | 1.0 | 2.0 | 0.00 | 0.00 | 0.00 | 46 | 100.7 |
| 20260509213202 | 87 | 113 | 0.0 | 1.0 | 0.00 | 0.00 | 0.00 | 49 | 100.7 |
| 20260509212702 | 88 | 236 | 2.0 | 3.0 | 0.00 | 0.00 | 0.00 | 48 | 100.8 |
| 20260509212203 | 87 | 144 | 1.0 | 2.0 | 0.00 | 0.00 | 0.00 | 49 | 100.8 |
| 20260509211202 | 87 | 49 | 1.0 | 2.0 | 0.00 | 0.00 | 0.00 | 49 | 100.8 |
| 20260509210702 | 86 | 263 | 1.0 | 2.0 | 0.00 | 0.00 | 0.00 | 51 | 100.8 |
| 20260509210202 | 86 | 332 | 0.0 | 2.0 | 0.00 | 0.00 | 0.00 | 51 | 100.8 |
| 20260509205702 | 86 | 278 | 1.0 | 1.0 | 0.00 | 0.00 | 0.00 | 51 | 100.8 |
| 20260509205202 | 86 | 160 | 0.0 | 3.0 | 0.00 | 0.00 | 0.00 | 51 | 100.8 |
| 20260509204702 | 85 | 280 | 2.0 | 4.0 | 0.00 | 0.00 | 0.00 | 52 | 100.8 |
| 20260509204202 | 84 | 148 | 1.0 | 3.0 | 0.00 | 0.00 | 0.00 | 52 | 100.8 |
| 20260509203702 | 85 | 185 | 1.0 | 5.0 | 0.00 | 0.00 | 0.00 | 51 | 100.8 |
| 20260509203202 | 84 | 133 | 0.0 | 4.0 | 0.00 | 0.00 | 0.00 | 47 | 100.8 |
| 20260509202202 | 84 | 186 | 3.0 | 5.0 | 0.00 | 0.00 | 0.00 | 44 | 100.9 |
| 20260509201202 | 83 | 129 | 2.0 | 4.0 | 0.00 | 0.00 | 0.00 | 40 | 100.9 |
| 20260509200702 | 82 | 212 | 0.0 | 5.0 | 0.00 | 0.00 | 0.00 | 42 | 100.9 |
| 20260509200203 | 82 | 204 | 2.0 | 16.0 | 0.00 | 0.00 | 0.00 | 41 | 100.9 |
| 20260509195702 | 83 | 159 | 1.0 | 8.0 | 0.00 | 0.00 | 0.00 | 51 | 100.9 |
| 20260509194202 | 84 | 161 | 1.0 | 2.0 | 0.00 | 0.00 | 0.00 | 56 | 100.9 |
| 20260509193202 | 84 | 157 | 1.0 | 4.0 | 0.00 | 0.00 | 0.00 | 57 | 100.9 |
| 20260509192702 | 84 | 95 | 2.0 | 4.0 | 0.00 | 0.00 | 0.00 | 57 | 100.9 |
| 20260509192202 | 84 | 66 | 0.0 | 4.0 | 0.00 | 0.00 | 0.00 | 59 | 100.9 |
| 20260509191702 | 84 | 265 | 1.0 | 4.0 | 0.00 | 0.00 | 0.00 | 59 | 100.9 |
| 20260509191202 | 83 | 47 | 2.0 | 4.0 | 0.00 | 0.00 | 0.00 | 63 | 100.9 |
| 20260509190702 | 82 | 38 | 3.0 | 4.0 | 0.00 | 0.00 | 0.00 | 64 | 100.9 |
| 20260509190202 | 83 | 47 | 3.0 | 7.0 | 0.00 | 0.00 | 0.00 | 66 | 100.9 |
| 20260509185202 | 82 | 81 | 0.0 | 4.0 | 0.00 | 0.00 | 0.00 | 65 | 100.9 |
| 20260509184702 | 82 | 43 | 2.0 | 4.0 | 0.00 | 0.00 | 0.00 | 65 | 100.9 |
| 20260509184202 | 83 | 27 | 2.0 | 6.0 | 0.00 | 0.00 | 0.00 | 67 | 100.9 |
| 20260509183702 | 83 | 333 | 1.0 | 4.0 | 0.00 | 0.00 | 0.00 | 61 | 101.0 |
| 20260509182703 | 84 | 293 | 3.0 | 4.0 | 0.00 | 0.00 | 0.00 | 59 | 101.0 |
| 20260509182202 | 84 | 306 | 0.0 | 4.0 | 0.00 | 0.00 | 0.00 | 58 | 101.0 |
| 20260509181702 | 85 | 250 | 2.0 | 7.0 | 0.00 | 0.00 | 0.00 | 59 | 101.0 |
| 20260509181202 | 85 | 272 | 2.0 | 4.0 | 0.00 | 0.00 | 0.00 | 59 | 101.0 |
| 20260509180703 | 84 | 326 | 1.0 | 5.0 | 0.00 | 0.00 | 0.00 | 61 | 101.0 |
| 20260509180202 | 84 | 251 | 3.0 | 5.0 | 0.00 | 0.00 | 0.00 | 62 | 101.0 |
| 20260509175702 | 83 | 35 | 1.0 | 3.0 | 0.00 | 0.00 | 0.00 | 65 | 101.0 |
| 20260509175202 | 82 | 323 | 1.0 | 4.0 | 0.00 | 0.00 | 0.00 | 66 | 101.0 |
| 20260509174702 | 82 | 275 | 3.0 | 5.0 | 0.00 | 0.00 | 0.00 | 67 | 101.0 |
| 20260509173702 | 82 | 358 | 1.0 | 4.0 | 0.00 | 0.00 | 0.00 | 67 | 101.0 |
| 20260509173202 | 82 | 247 | 2.0 | 3.0 | 0.00 | 0.00 | 0.00 | 67 | 101.0 |
| 20260509172202 | 81 | 273 | 4.0 | 4.0 | 0.00 | 0.00 | 0.00 | 70 | 101.0 |
| 20260509171703 | 81 | 247 | 2.0 | 6.0 | 0.00 | 0.00 | 0.00 | 69 | 101.0 |
| 20260509171203 | 83 | 268 | 2.0 | 4.0 | 0.00 | 0.00 | 0.00 | 67 | 101.0 |
| 20260509170702 | 83 | 275 | 1.0 | 3.0 | 0.00 | 0.00 | 0.00 | 67 | 101.0 |
| 20260509170202 | 82 | 282 | 2.0 | 3.0 | 0.00 | 0.00 | 0.00 | 68 | 101.0 |
| 20260509165702 | 81 | 322 | 2.0 | 5.0 | 0.00 | 0.00 | 0.00 | 70 | 101.0 |
| 20260509165202 | 82 | 240 | 4.0 | 4.0 | 0.00 | 0.00 | 0.00 | 70 | 101.0 |
| 20260509164703 | 81 | 273 | 4.0 | 5.0 | 0.00 | 0.00 | 0.00 | 72 | 101.0 |
| 20260509164203 | 80 | 261 | 2.0 | 4.0 | 0.00 | 0.00 | 0.00 | 73 | 101.0 |
| 20260509163202 | 80 | 279 | 1.0 | 6.0 | 0.00 | 0.00 | 0.00 | 72 | 101.0 |
| 20260509162702 | 81 | 258 | 3.0 | 8.0 | 0.00 | 0.00 | 0.00 | 72 | 101.0 |
| 20260509161702 | 79 | 248 | 2.0 | 5.0 | 0.00 | 0.00 | 0.00 | 75 | 101.0 |
| 20260509161202 | 78 | 205 | 1.0 | 2.0 | 0.00 | 0.00 | 0.00 | 78 | 101.0 |
| 20260509160702 | 78 | 203 | 4.0 | 4.0 | 0.00 | 0.00 | 0.00 | 78 | 101.0 |
| 20260509160203 | 78 | 238 | 3.0 | 5.0 | 0.00 | 0.00 | 0.00 | 79 | 101.0 |
| 20260509155702 | 77 | 202 | 2.0 | 4.0 | 0.00 | 0.00 | 0.00 | 82 | 101.0 |
| 20260509155202 | 77 | 250 | 4.0 | 7.0 | 0.00 | 0.00 | 0.00 | 82 | 101.0 |
| 20260509154202 | 78 | 197 | 6.0 | 9.0 | 0.00 | 0.00 | 0.00 | 80 | 101.0 |
| 20260509153703 | 78 | 236 | 2.0 | 7.0 | 0.00 | 0.00 | 0.00 | 80 | 101.0 |
| 20260509153202 | 78 | 260 | 4.0 | 6.0 | 0.00 | 0.00 | 0.00 | 79 | 101.0 |
| 20260509152702 | 78 | 197 | 4.0 | 6.0 | 0.00 | 0.00 | 0.00 | 80 | 101.0 |
| 20260509151701 | 77 | 247 | 3.0 | 6.0 | 0.00 | 0.00 | 0.00 | 81 | 101.0 |
| 20260509151202 | 77 | 234 | 4.0 | 6.0 | 0.00 | 0.00 | 0.00 | 81 | 101.0 |
| 20260509150202 | 78 | 220 | 3.0 | 5.0 | 0.00 | 0.00 | 0.00 | 81 | 101.0 |
| 20260509145702 | 78 | 217 | 3.0 | 5.0 | 0.00 | 0.00 | 0.00 | 80 | 101.0 |
| 20260509145202 | 78 | 192 | 4.0 | 11.0 | 0.00 | 0.00 | 0.00 | 81 | 101.0 |
| 20260509144702 | 78 | 241 | 3.0 | 7.0 | 0.00 | 0.00 | 0.00 | 80 | 101.0 |
| 20260509143702 | 77 | 224 | 2.0 | 6.0 | 0.00 | 0.00 | 0.00 | 80 | 101.0 |
| 20260509143202 | 77 | 214 | 3.0 | 10.0 | 0.00 | 0.00 | 0.00 | 81 | 101.0 |
| 20260509142702 | 77 | 212 | 3.0 | 8.0 | 0.00 | 0.00 | 0.00 | 81 | 101.0 |
| 20260509142202 | 77 | 188 | 3.0 | 5.0 | 0.00 | 0.00 | 0.00 | 81 | 101.0 |
| 20260509141703 | 76 | 175 | 2.0 | 5.0 | 0.00 | 0.00 | 0.00 | 83 | 101.0 |
| 20260509141202 | 76 | 190 | 2.0 | 3.0 | 0.00 | 0.00 | 0.00 | 84 | 101.0 |
| 20260509140702 | 75 | 181 | 2.0 | 7.0 | 0.00 | 0.00 | 0.00 | 85 | 101.0 |
| 20260509135702 | 75 | 194 | 5.0 | 6.0 | 0.00 | 0.00 | 0.00 | 86 | 101.0 |
| 20260509135202 | 74 | 259 | 2.0 | 5.0 | 0.00 | 0.00 | 0.00 | 88 | 101.0 |
| 20260509134703 | 74 | 234 | 2.0 | 7.0 | 0.00 | 0.00 | 0.00 | 88 | 101.0 |
| 20260509134203 | 74 | 251 | 2.0 | 6.0 | 0.00 | 0.00 | 0.00 | 90 | 101.0 |
| 20260509133702 | 73 | 177 | 3.0 | 6.0 | 0.00 | 0.00 | 0.00 | 91 | 101.0 |
| 20260509133202 | 73 | 141 | 3.0 | 9.0 | 0.00 | 0.00 | 0.00 | 93 | 101.0 |
| 20260509132702 | 72 | 225 | 2.0 | 8.0 | 0.00 | 0.00 | 0.00 | 95 | 101.0 |
| 20260509132202 | 72 | 211 | 4.0 | 8.0 | 0.00 | 0.00 | 0.00 | 96 | 101.0 |
| 20260509131702 | 71 | 218 | 3.0 | 10.0 | 0.00 | 0.00 | 0.00 | 97 | 101.0 |
| 20260509131203 | 71 | 205 | 3.0 | 9.0 | 0.00 | 0.00 | 0.00 | 98 | 101.0 |
| 20260509130702 | 71 | 224 | 3.0 | 4.0 | 0.00 | 0.00 | 0.00 | 98 | 101.0 |
| 20260509130202 | 71 | 204 | 1.0 | 5.0 | 0.00 | 0.00 | 0.00 | 99 | 101.0 |
| 20260509125702 | 71 | 240 | 1.0 | 4.0 | 0.00 | 0.00 | 0.00 | 99 | 101.0 |
| 20260509125202 | 71 | 259 | 1.0 | 3.0 | 0.00 | 0.00 | 0.00 | 99 | 101.0 |
| 20260509124702 | 71 | 193 | 2.0 | 5.0 | 0.00 | 0.00 | 0.00 | 99 | 101.0 |
| 20260509124202 | 71 | 243 | 1.0 | 2.0 | 0.00 | 0.00 | 0.00 | 99 | 101.0 |
| 20260509123202 | 70 | 30 | 2.0 | 4.0 | 0.00 | 0.00 | 0.00 | 99 | 101.0 |